| time (UTC) | temp C | wind direction | speed KPH | gust KPH | rain 1hr cm | rain 24hr cm | rain mn cm | humidity % | barometer mb |
| 20260503020506 | 8 | 49 | 25.7 | 33.8 | 0.00 | 0.15 | 0.00 | 1015.0 | |
| 20260503013506 | 8 | 47 | 25.7 | 33.8 | 0.00 | 0.15 | 0.00 | 1016.0 | |
| 20260503010506 | 8 | 47 | 25.7 | 33.8 | 0.00 | 0.15 | 0.00 | 1016.0 | |
| 20260503003506 | 8 | 47 | 25.7 | 33.8 | 0.00 | 0.15 | 0.00 | 1016.0 | |
| 20260503000506 | 8 | 49 | 24.1 | 32.2 | 0.00 | 0.15 | 0.00 | 1016.0 | |
| 20260502233505 | 8 | 51 | 22.5 | 29.0 | 0.00 | 0.15 | 0.00 | 1016.0 | |
| 20260502230505 | 8 | 51 | 22.5 | 29.0 | 0.00 | 0.15 | 0.00 | 1016.0 | |
| 20260502223505 | 8 | 50 | 22.5 | 27.4 | 0.00 | 0.15 | 0.00 | 1016.0 | |
| 20260502220505 | 8 | 50 | 22.5 | 27.4 | 0.00 | 0.15 | 0.00 | 1016.0 | |
| 20260502213505 | 8 | 48 | 22.5 | 29.0 | 0.00 | 0.15 | 0.00 | 1016.0 | |
| 20260502210505 | 8 | 48 | 22.5 | 29.0 | 0.00 | 0.15 | 0.00 | 1016.0 | |
| 20260502203506 | 8 | 45 | 24.1 | 29.0 | 0.00 | 0.15 | 0.00 | 1016.0 | |
| 20260502200506 | 8 | 45 | 24.1 | 29.0 | 0.00 | 0.15 | 0.00 | 1016.0 | |
| 20260502193506 | 9 | 46 | 19.3 | 24.1 | 0.00 | 0.15 | 0.00 | 1015.0 | |
| 20260502190506 | 9 | 46 | 19.3 | 24.1 | 0.00 | 0.15 | 0.00 | 1015.0 | |
| 20260502183506 | 10 | 76 | 12.9 | 16.1 | 0.00 | 0.15 | 0.00 | 1015.0 | |
| 20260502180506 | 10 | 69 | 17.7 | 20.9 | 0.00 | 0.15 | 0.00 | 1014.0 | |
| 20260502170506 | 11 | 66 | 3.2 | 6.4 | 0.00 | 0.15 | 0.00 | 1014.0 | |
| 20260502163505 | 11 | 307 | 6.4 | 8.0 | 0.00 | 0.15 | 0.00 | 1015.0 | |
| 20260502160505 | 11 | 307 | 6.4 | 8.0 | 0.00 | 0.15 | 0.00 | 1015.0 | |
| 20260502150505 | 11 | 260 | 11.3 | 14.5 | 0.00 | 0.15 | 0.00 | 1015.0 | |
| 20260502130506 | 12 | 253 | 8.0 | 9.7 | 0.00 | 0.15 | 0.00 | 1015.0 | |
| 20260502123506 | 12 | 258 | 11.3 | 12.9 | 0.00 | 0.15 | 0.00 | 1015.0 | |
| 20260502120506 | 12 | 280 | 9.7 | 11.3 | 0.00 | 0.15 | 0.00 | 1015.0 | |
| 20260502113506 | 11 | 250 | 9.7 | 11.3 | 0.00 | 0.15 | 0.00 | 1015.0 | |
| 20260502110506 | 11 | 250 | 9.7 | 11.3 | 0.00 | 0.15 | 0.00 | 1015.0 | |
| 20260502103505 | 11 | 255 | 11.3 | 12.9 | 0.00 | 0.15 | 0.00 | 1015.0 | |
| 20260502100505 | 11 | 255 | 11.3 | 12.9 | 0.00 | 0.15 | 0.00 | 1015.0 | |
| 20260502090505 | 11 | 263 | 14.5 | 17.7 | 0.00 | 0.00 | 0.00 | 1015.0 | |
| 20260502070506 | 10 | 250 | 17.7 | 22.5 | 0.00 | 0.00 | 0.00 | 1015.0 | |
| 20260502063506 | 10 | 243 | 17.7 | 20.9 | 0.00 | 0.00 | 0.00 | 1015.0 | |
| 20260502060506 | 9 | 244 | 19.3 | 24.1 | 0.00 | 0.00 | 0.00 | 1015.0 | |
| 20260502053506 | 9 | 242 | 17.7 | 20.9 | 0.00 | 0.00 | 0.00 | 1015.0 | |
| 20260502050506 | 9 | 242 | 17.7 | 20.9 | 0.00 | 0.00 | 0.00 | 1015.0 | |
| 20260502043505 | 9 | 245 | 17.7 | 20.9 | 0.00 | 0.00 | 0.00 | 1015.0 | |
| 20260502040506 | 9 | 245 | 17.7 | 20.9 | 0.00 | 0.00 | 0.00 | 1015.0 | |
| 20260502033505 | 9 | 246 | 16.1 | 20.9 | 0.00 | 0.00 | 0.00 | 1016.0 | |
| 20260502030505 | 9 | 246 | 16.1 | 20.9 | 0.00 | 0.00 | 0.00 | 1016.0 | |
| 20260502023505 | 10 | 242 | 16.1 | 20.9 | 0.00 | 0.00 | 0.00 | 1017.0 |